Time,TemperatureF,DewpointF,PressureIn,WindDirection,WindDirectionDegrees,WindSpeedMPH,WindSpeedGustMPH,Humidity,HourlyPrecipIn,Conditions,Clouds,dailyrainin,SoftwareType,DateUTC
2013-05-05 00:01:00,63.0,10.0,29.78,ESE,111,19.0,25.0,12,0.00,,,0.00,,2013-05-05 06:01:00,
2013-05-05 00:12:00,63.0,10.0,29.78,ESE,111,19.0,25.0,12,0.00,,,0.00,,2013-05-05 06:12:00,
2013-05-05 00:21:00,63.0,11.0,29.79,East,89,21.0,28.0,13,0.00,,,0.00,,2013-05-05 06:21:00,
2013-05-05 00:32:00,62.0,11.0,29.78,ESE,110,19.0,29.0,13,0.00,,,0.00,,2013-05-05 06:32:00,
2013-05-05 00:42:00,62.0,11.0,29.78,ESE,110,19.0,29.0,13,0.00,,,0.00,,2013-05-05 06:42:00,
2013-05-05 00:52:00,62.0,12.0,29.79,ESE,115,20.0,24.0,14,0.00,,,0.00,,2013-05-05 06:52:00,
2013-05-05 01:01:00,61.0,13.0,29.79,ESE,105,19.0,26.0,15,0.00,,,0.00,,2013-05-05 07:01:00,
2013-05-05 01:11:00,61.0,13.0,29.79,ESE,105,19.0,26.0,15,0.00,,,0.00,,2013-05-05 07:11:00,
2013-05-05 01:21:00,61.0,14.0,29.79,ESE,105,19.0,29.0,16,0.00,,,0.00,,2013-05-05 07:21:00,
2013-05-05 01:32:00,60.0,14.0,29.79,ESE,117,16.0,26.0,16,0.00,,,0.00,,2013-05-05 07:32:00,
2013-05-05 01:42:00,60.0,14.0,29.79,ESE,117,16.0,26.0,16,0.00,,,0.00,,2013-05-05 07:42:00,
2013-05-05 01:52:00,60.0,15.0,29.79,East,99,15.0,26.0,17,0.00,,,0.00,,2013-05-05 07:52:00,
2013-05-05 02:02:00,60.0,16.0,29.80,ESE,104,20.0,26.0,18,0.00,,,0.00,,2013-05-05 08:02:00,
2013-05-05 02:11:00,60.0,16.0,29.80,ESE,104,20.0,26.0,18,0.00,,,0.00,,2013-05-05 08:11:00,
2013-05-05 02:21:00,59.0,16.0,29.80,ESE,123,16.0,24.0,18,0.00,,,0.00,,2013-05-05 08:21:00,
2013-05-05 02:31:00,59.0,14.0,29.80,ESE,106,20.0,32.0,17,0.00,,,0.00,,2013-05-05 08:31:00,
2013-05-05 02:42:00,59.0,14.0,29.80,ESE,106,20.0,32.0,17,0.00,,,0.00,,2013-05-05 08:42:00,
2013-05-05 02:53:00,58.0,13.0,29.80,ESE,107,22.0,28.0,17,0.00,,,0.00,,2013-05-05 08:53:00,
2013-05-05 03:01:00,58.0,15.0,29.80,East,96,15.0,28.0,18,0.00,,,0.00,,2013-05-05 09:01:00,
2013-05-05 03:11:00,58.0,15.0,29.80,East,96,15.0,28.0,18,0.00,,,0.00,,2013-05-05 09:11:00,
2013-05-05 03:21:00,57.0,14.0,29.80,ESE,111,17.0,23.0,18,0.00,,,0.00,,2013-05-05 09:21:00,
2013-05-05 03:32:00,56.0,17.0,29.80,ESE,106,18.0,30.0,21,0.00,,,0.00,,2013-05-05 09:32:00,
2013-05-05 03:42:00,56.0,17.0,29.80,ESE,106,18.0,30.0,21,0.00,,,0.00,,2013-05-05 09:42:00,
2013-05-05 03:52:00,56.0,17.0,29.81,ESE,115,20.0,24.0,21,0.00,,,0.00,,2013-05-05 09:52:00,
2013-05-05 04:02:00,55.0,17.0,29.81,ESE,108,22.0,33.0,22,0.00,,,0.00,,2013-05-05 10:02:00,
2013-05-05 04:12:00,55.0,17.0,29.81,ESE,108,22.0,33.0,22,0.00,,,0.00,,2013-05-05 10:12:00,
2013-05-05 04:22:00,55.0,17.0,29.82,ESE,107,20.0,28.0,22,0.00,,,0.00,,2013-05-05 10:22:00,
2013-05-05 04:32:00,55.0,17.0,29.82,ESE,107,20.0,27.0,22,0.00,,,0.00,,2013-05-05 10:32:00,
2013-05-05 04:42:00,55.0,17.0,29.82,ESE,107,20.0,27.0,22,0.00,,,0.00,,2013-05-05 10:42:00,
2013-05-05 04:53:00,55.0,17.0,29.83,ESE,102,14.0,22.0,22,0.00,,,0.00,,2013-05-05 10:53:00,
2013-05-05 05:01:00,54.0,17.0,29.83,East,83,13.0,28.0,23,0.00,,,0.00,,2013-05-05 11:01:00,
2013-05-05 05:12:00,54.0,17.0,29.83,East,83,13.0,28.0,23,0.00,,,0.00,,2013-05-05 11:12:00,
2013-05-05 05:21:00,54.0,17.0,29.84,ESE,107,15.0,24.0,23,0.00,,,0.00,,2013-05-05 11:21:00,
2013-05-05 05:32:00,53.0,16.0,29.84,ESE,105,14.0,26.0,23,0.00,,,0.00,,2013-05-05 11:32:00,
2013-05-05 05:42:00,53.0,16.0,29.84,ESE,105,14.0,26.0,23,0.00,,,0.00,,2013-05-05 11:42:00,
2013-05-05 05:52:00,53.0,16.0,29.84,ESE,109,17.0,24.0,23,0.00,,,0.00,,2013-05-05 11:52:00,
2013-05-05 06:02:00,53.0,16.0,29.85,ESE,113,13.0,24.0,23,0.00,,,0.00,,2013-05-05 12:02:00,
2013-05-05 06:11:00,53.0,16.0,29.85,ESE,113,13.0,24.0,23,0.00,,,0.00,,2013-05-05 12:11:00,
2013-05-05 06:21:00,53.0,16.0,29.85,East,94,12.0,21.0,23,0.00,,,0.00,,2013-05-05 12:21:00,
2013-05-05 06:32:00,53.0,16.0,29.86,East,100,14.0,23.0,23,0.00,,,0.00,,2013-05-05 12:32:00,
2013-05-05 06:42:00,53.0,16.0,29.86,East,100,14.0,23.0,23,0.00,,,0.00,,2013-05-05 12:42:00,
2013-05-05 06:52:00,53.0,16.0,29.87,East,98,14.0,22.0,23,0.00,,,0.00,,2013-05-05 12:52:00,
2013-05-05 07:01:00,53.0,17.0,29.88,ESE,104,14.0,19.0,24,0.00,,,0.00,,2013-05-05 13:01:00,
2013-05-05 07:11:00,53.0,17.0,29.88,ESE,104,14.0,19.0,24,0.00,,,0.00,,2013-05-05 13:11:00,
2013-05-05 07:21:00,53.0,17.0,29.89,East,98,12.0,24.0,24,0.00,,,0.00,,2013-05-05 13:21:00,
2013-05-05 07:32:00,53.0,17.0,29.90,ESE,113,14.0,22.0,24,0.00,,,0.00,,2013-05-05 13:32:00,
2013-05-05 07:42:00,53.0,17.0,29.90,ESE,113,14.0,22.0,24,0.00,,,0.00,,2013-05-05 13:42:00,
2013-05-05 07:52:00,53.0,16.0,29.90,East,98,13.0,19.0,23,0.00,,,0.00,,2013-05-05 13:52:00,
2013-05-05 08:02:00,53.0,16.0,29.90,ESE,110,13.0,19.0,23,0.00,,,0.00,,2013-05-05 14:02:00,
2013-05-05 08:11:00,54.0,16.0,29.91,ESE,111,12.0,18.0,22,0.00,,,0.00,,2013-05-05 14:11:00,
2013-05-05 08:21:00,54.0,16.0,29.91,ESE,111,12.0,18.0,22,0.00,,,0.00,,2013-05-05 14:21:00,
2013-05-05 08:31:00,55.0,17.0,29.90,East,99,11.0,17.0,22,0.00,,,0.00,,2013-05-05 14:31:00,
2013-05-05 08:42:00,55.0,17.0,29.90,East,99,11.0,17.0,22,0.00,,,0.00,,2013-05-05 14:42:00,
2013-05-05 08:52:00,55.0,17.0,29.91,ESE,106,11.0,17.0,22,0.00,,,0.00,,2013-05-05 14:52:00,
2013-05-05 09:01:00,56.0,17.0,29.92,East,97,11.0,13.0,21,0.00,,,0.00,,2013-05-05 15:01:00,
2013-05-05 09:11:00,56.0,17.0,29.92,East,97,11.0,13.0,21,0.00,,,0.00,,2013-05-05 15:11:00,
2013-05-05 09:21:00,56.0,17.0,29.93,ESE,103,9.0,13.0,21,0.00,,,0.00,,2013-05-05 15:21:00,
2013-05-05 09:33:00,58.0,17.0,29.93,ESE,108,9.0,14.0,20,0.00,,,0.00,,2013-05-05 15:33:00,
2013-05-05 09:43:00,58.0,17.0,29.93,ESE,108,9.0,14.0,20,0.00,,,0.00,,2013-05-05 15:43:00,
2013-05-05 09:53:00,60.0,20.0,29.93,East,97,5.0,12.0,21,0.00,,,0.00,,2013-05-05 15:53:00,
2013-05-05 10:03:00,62.0,19.0,29.93,ESE,113,6.0,15.0,19,0.00,,,0.00,,2013-05-05 16:03:00,
2013-05-05 10:12:00,62.0,19.0,29.93,ESE,113,6.0,15.0,19,0.00,,,0.00,,2013-05-05 16:12:00,
2013-05-05 10:22:00,63.0,19.0,29.92,ESE,104,9.0,12.0,18,0.00,,,0.00,,2013-05-05 16:22:00,
2013-05-05 10:32:00,63.0,19.0,29.92,ESE,119,6.0,8.0,18,0.00,,,0.00,,2013-05-05 16:32:00,
2013-05-05 10:42:00,63.0,19.0,29.92,ESE,119,6.0,8.0,18,0.00,,,0.00,,2013-05-05 16:42:00,
2013-05-05 10:53:00,64.0,20.0,29.92,East,101,6.0,8.0,18,0.00,,,0.00,,2013-05-05 16:53:00,
2013-05-05 11:02:00,66.0,20.0,29.92,NNW,343,4.0,13.0,17,0.00,,,0.00,,2013-05-05 17:02:00,
2013-05-05 11:12:00,66.0,20.0,29.92,NNW,343,4.0,13.0,17,0.00,,,0.00,,2013-05-05 17:12:00,
2013-05-05 11:23:00,67.0,19.0,29.91,SE,131,7.0,11.0,16,0.00,,,0.00,,2013-05-05 17:23:00,
2013-05-05 11:32:00,68.0,20.0,29.92,SE,132,8.0,13.0,16,0.00,,,0.00,,2013-05-05 17:32:00,
2013-05-05 11:42:00,68.0,20.0,29.92,SE,132,8.0,13.0,16,0.00,,,0.00,,2013-05-05 17:42:00,
2013-05-05 11:52:00,68.0,20.0,29.91,SE,132,5.0,9.0,16,0.00,,,0.00,,2013-05-05 17:52:00,
2013-05-05 12:01:00,68.0,22.0,29.90,ESE,102,8.0,12.0,17,0.00,,,0.00,,2013-05-05 18:01:00,
2013-05-05 12:12:00,68.0,22.0,29.90,ESE,102,8.0,12.0,17,0.00,,,0.00,,2013-05-05 18:12:00,
2013-05-05 12:21:00,68.0,23.0,29.91,SE,128,5.0,11.0,18,0.00,,,0.00,,2013-05-05 18:21:00,
2013-05-05 12:32:00,69.0,22.0,29.89,ENE,78,6.0,10.0,17,0.00,,,0.00,,2013-05-05 18:32:00,
2013-05-05 12:42:00,69.0,22.0,29.89,ENE,78,6.0,10.0,17,0.00,,,0.00,,2013-05-05 18:42:00,
2013-05-05 12:52:00,69.0,24.0,29.89,ESE,114,3.0,8.0,18,0.00,,,0.00,,2013-05-05 18:52:00,
2013-05-05 13:01:00,70.0,23.0,29.88,ESE,111,4.0,9.0,17,0.00,,,0.00,,2013-05-05 19:01:00,
2013-05-05 13:11:00,70.0,23.0,29.88,ESE,111,4.0,9.0,17,0.00,,,0.00,,2013-05-05 19:11:00,
2013-05-05 13:21:00,71.0,23.0,29.87,ESE,119,6.0,10.0,16,0.00,,,0.00,,2013-05-05 19:21:00,
2013-05-05 13:32:00,73.0,24.0,29.87,ESE,110,5.0,12.0,16,0.00,,,0.00,,2013-05-05 19:32:00,
2013-05-05 13:42:00,73.0,24.0,29.87,ESE,110,5.0,12.0,16,0.00,,,0.00,,2013-05-05 19:42:00,
2013-05-05 13:52:00,74.0,23.0,29.86,SE,142,4.0,11.0,15,0.00,,,0.00,,2013-05-05 19:52:00,
2013-05-05 14:01:00,76.0,27.0,29.85,SE,146,6.0,8.0,16,0.00,,,0.00,,2013-05-05 20:01:00,
2013-05-05 14:11:00,76.0,27.0,29.85,SE,146,6.0,8.0,16,0.00,,,0.00,,2013-05-05 20:11:00,
2013-05-05 14:21:00,77.0,27.0,29.84,SW,219,4.0,11.0,16,0.00,,,0.00,,2013-05-05 20:21:00,
2013-05-05 14:31:00,78.0,28.0,29.84,SE,133,6.0,9.0,16,0.00,,,0.00,,2013-05-05 20:31:00,
2013-05-05 14:41:00,78.0,28.0,29.84,SE,133,6.0,9.0,16,0.00,,,0.00,,2013-05-05 20:41:00,
2013-05-05 14:52:00,77.0,27.0,29.83,SW,227,5.0,7.0,16,0.00,,,0.00,,2013-05-05 20:52:00,
2013-05-05 15:01:00,76.0,28.0,29.83,South,179,3.0,6.0,17,0.00,,,0.00,,2013-05-05 21:01:00,
2013-05-05 15:11:00,76.0,28.0,29.83,South,179,3.0,6.0,17,0.00,,,0.00,,2013-05-05 21:11:00,
2013-05-05 15:21:00,77.0,27.0,29.82,North,6,2.0,8.0,16,0.00,,,0.00,,2013-05-05 21:21:00,
2013-05-05 15:33:00,78.0,28.0,29.82,SSE,155,2.0,6.0,16,0.00,,,0.00,,2013-05-05 21:33:00,
2013-05-05 15:42:00,78.0,28.0,29.82,SSE,155,2.0,6.0,16,0.00,,,0.00,,2013-05-05 21:42:00,
2013-05-05 15:53:00,76.0,28.0,29.82,SW,216,4.0,8.0,17,0.00,,,0.00,,2013-05-05 21:53:00,
2013-05-05 16:02:00,75.0,27.0,29.82,SSW,194,4.0,11.0,17,0.00,,,0.00,,2013-05-05 22:02:00,
2013-05-05 16:12:00,75.0,27.0,29.82,SSW,194,4.0,11.0,17,0.00,,,0.00,,2013-05-05 22:12:00,
2013-05-05 16:22:00,75.0,27.0,29.81,WSW,237,1.0,7.0,17,0.00,,,0.00,,2013-05-05 22:22:00,
2013-05-05 16:33:00,76.0,28.0,29.80,SW,225,2.0,5.0,17,0.00,,,0.00,,2013-05-05 22:33:00,
2013-05-05 16:42:00,76.0,28.0,29.80,SW,225,2.0,5.0,17,0.00,,,0.00,,2013-05-05 22:42:00,
2013-05-05 16:52:00,76.0,27.0,29.80,SW,219,1.0,5.0,16,0.00,,,0.00,,2013-05-05 22:52:00,
2013-05-05 17:02:00,75.0,27.0,29.80,ESE,114,2.0,7.0,17,0.00,,,0.00,,2013-05-05 23:02:00,
2013-05-05 17:11:00,75.0,27.0,29.80,ESE,114,2.0,7.0,17,0.00,,,0.00,,2013-05-05 23:11:00,
2013-05-05 17:21:00,75.0,27.0,29.81,SW,230,6.0,7.0,17,0.00,,,0.00,,2013-05-05 23:21:00,
2013-05-05 17:32:00,73.0,28.0,29.81,WSW,241,2.0,14.0,19,0.00,,,0.00,,2013-05-05 23:32:00,
2013-05-05 17:42:00,73.0,28.0,29.81,WSW,241,2.0,14.0,19,0.00,,,0.00,,2013-05-05 23:42:00,
2013-05-05 17:52:00,72.0,27.0,29.79,North,6,4.0,10.0,19,0.00,,,0.00,,2013-05-05 23:52:00,
2013-05-05 18:01:00,72.0,27.0,29.79,SSE,152,2.0,6.0,19,0.00,,,0.00,,2013-05-06 00:01:00,
2013-05-05 18:11:00,72.0,27.0,29.79,SSE,152,2.0,6.0,19,0.00,,,0.00,,2013-05-06 00:11:00,
2013-05-05 18:21:00,72.0,27.0,29.79,East,96,1.0,4.0,19,0.00,,,0.00,,2013-05-06 00:21:00,
2013-05-05 18:31:00,71.0,28.0,29.80,South,170,6.0,10.0,20,0.00,,,0.00,,2013-05-06 00:31:00,
2013-05-05 18:41:00,71.0,28.0,29.80,South,170,6.0,10.0,20,0.00,,,0.00,,2013-05-06 00:41:00,
2013-05-05 18:52:00,71.0,30.0,29.81,SSW,194,4.0,9.0,22,0.00,,,0.00,,2013-05-06 00:52:00,
2013-05-05 19:01:00,70.0,30.0,29.80,SE,142,5.0,12.0,23,0.00,,,0.00,,2013-05-06 01:01:00,
2013-05-05 19:11:00,70.0,30.0,29.80,SE,142,5.0,12.0,23,0.00,,,0.00,,2013-05-06 01:11:00,
2013-05-05 19:21:00,69.0,30.0,29.80,South,169,2.0,10.0,23,0.00,,,0.00,,2013-05-06 01:21:00,
2013-05-05 19:31:00,69.0,31.0,29.80,ESE,102,5.0,7.0,24,0.00,,,0.00,,2013-05-06 01:31:00,
2013-05-05 19:41:00,69.0,31.0,29.80,ESE,102,5.0,7.0,24,0.00,,,0.00,,2013-05-06 01:41:00,
2013-05-05 19:52:00,69.0,31.0,29.80,ESE,111,3.0,7.0,24,0.00,,,0.00,,2013-05-06 01:52:00,
2013-05-05 20:01:00,68.0,32.0,29.80,East,80,7.0,11.0,26,0.00,,,0.00,,2013-05-06 02:01:00,
2013-05-05 20:12:00,68.0,32.0,29.80,East,80,7.0,11.0,26,0.00,,,0.00,,2013-05-06 02:12:00,
2013-05-05 20:21:00,67.0,31.0,29.80,ESE,108,5.0,10.0,26,0.00,,,0.00,,2013-05-06 02:21:00,
2013-05-05 20:32:00,67.0,30.0,29.79,East,98,3.0,6.0,25,0.00,,,0.00,,2013-05-06 02:32:00,
2013-05-05 20:42:00,67.0,30.0,29.79,East,98,3.0,6.0,25,0.00,,,0.00,,2013-05-06 02:42:00,
2013-05-05 20:52:00,67.0,31.0,29.80,ESE,115,6.0,8.0,26,0.00,,,0.00,,2013-05-06 02:52:00,
2013-05-05 21:01:00,66.0,29.0,29.80,ESE,104,8.0,12.0,25,0.00,,,0.00,,2013-05-06 03:01:00,
2013-05-05 21:11:00,66.0,29.0,29.80,ESE,104,8.0,12.0,25,0.00,,,0.00,,2013-05-06 03:11:00,
2013-05-05 21:22:00,66.0,27.0,29.80,ESE,106,12.0,16.0,23,0.00,,,0.00,,2013-05-06 03:22:00,
2013-05-05 21:33:00,66.0,25.0,29.80,ESE,104,9.0,20.0,21,0.00,,,0.00,,2013-05-06 03:33:00,
2013-05-05 21:42:00,66.0,25.0,29.80,ESE,104,9.0,20.0,21,0.00,,,0.00,,2013-05-06 03:42:00,
2013-05-05 21:52:00,65.0,24.0,29.80,ESE,117,10.0,12.0,21,0.00,,,0.00,,2013-05-06 03:52:00,
2013-05-05 22:02:00,64.0,20.0,29.80,SE,125,16.0,20.0,18,0.00,,,0.00,,2013-05-06 04:02:00,
2013-05-05 22:12:00,64.0,20.0,29.80,SE,125,16.0,20.0,18,0.00,,,0.00,,2013-05-06 04:12:00,
2013-05-05 22:23:00,63.0,18.0,29.81,ESE,114,7.0,18.0,17,0.00,,,0.00,,2013-05-06 04:23:00,
2013-05-05 22:32:00,63.0,18.0,29.81,ESE,104,15.0,18.0,17,0.00,,,0.00,,2013-05-06 04:32:00,
2013-05-05 22:42:00,63.0,18.0,29.81,ESE,104,15.0,18.0,17,0.00,,,0.00,,2013-05-06 04:42:00,
2013-05-05 22:53:00,63.0,18.0,29.81,East,101,11.0,20.0,17,0.00,,,0.00,,2013-05-06 04:53:00,
2013-05-05 23:02:00,63.0,19.0,29.81,East,100,12.0,19.0,18,0.00,,,0.00,,2013-05-06 05:02:00,
2013-05-05 23:12:00,63.0,19.0,29.81,East,100,12.0,19.0,18,0.00,,,0.00,,2013-05-06 05:12:00,
2013-05-05 23:22:00,63.0,19.0,29.81,ESE,117,12.0,16.0,18,0.00,,,0.00,,2013-05-06 05:22:00,
2013-05-05 23:32:00,63.0,19.0,29.80,East,100,12.0,20.0,18,0.00,,,0.00,,2013-05-06 05:32:00,
2013-05-05 23:42:00,63.0,19.0,29.80,East,100,12.0,20.0,18,0.00,,,0.00,,2013-05-06 05:42:00,
2013-05-05 23:52:00,63.0,19.0,29.80,ESE,111,11.0,18.0,18,0.00,,,0.00,,2013-05-06 05:52:00,